Tracking 28888 objects as of 22-May-2024
HD Live streaming from Space Station
objects crossing your sky now

BNU-1

Track BNU-1 now!
10-day predictions


NORAD ID: 44529
Int'l Code: 2019-059B
Perigee: 733.9 km
Apogee: 754.3 km
Inclination: 98.5 °
Period: 99.5 minutes
Semi major axis: 7115 km
RCS: Unknown
Launch date: September 12, 2019
Source: People's Republic of China (PRC)
Launch site: Taiyaun Space Center, China (TSC)
Your satellite tracking list
Your tracking list is empty




NASA's NSSDC Master Catalog

Two Line Element Set (TLE):
1 44529U 19059B   24143.21138177  .00001583  00000-0  45134-3 0  9999
2 44529  98.5356 251.7082 0014325 137.4299 222.8006 14.46530799247615
Source of the keplerian elements: AFSPC